STARLINK-4664, 53777

Orbit data source: Space-Track

STARLINK-4664, 53777 is a payload satellite owned by SpaceX/Seattle (US) in LEO that was launched on Sun, 11 Sep 2022 UTC via an FALCON 9 launch vehicle from the Air Force Eastern Test Range (AFETR). Payload-class satellites include a variety of spacecraft equipped with specific instruments for various scientific and technological missions. These include communications satellites like Starlink; space stations such as the ISS; scientific satellites like the Hubble; Earth observation satellites from companies like Planet Labs, Umbra, and HawkEye 360; GPS; miniature CubeSats for education and research; and military/defense satellites.

Loading next visibility...
Identifier
53777, 2022-111E
Orbit
LEO
Country
Flag of USUS
Related business
Manufacturer
SpaceX/Seattle
Mission
Operational Commercial Communications
Bus & Motor
STARLINK, Unknown motor
Mass
305 kg wet, ~290 kg dry
Launch date (UTC)
2022-09-11 (3 years ago)
Launch vehicle
FALCON 9
Launch site
Air Force Eastern Test Range (AFETR)
Object type
Payload
Rocket body
Debris
Shape & HBR
Box + 1 Pan, 10.1 m
Radar Cross Section
13.562 m², Large (>1 m²)

Expand to show TLE details & history
Last TLE update: 15 hours ago

TLE from 15 hours ago
0 STARLINK-4664
1 53777U 22111E   25286.50212719 -.00000049  00000-0  15035-4 0  9998
2 53777  53.2160 215.0306 0001225  94.6260 265.4872 15.08837452171479
Epoch: 2025-10-13T12:03Z
TLE epoch observation values (Epoch: 2025-10-13T12:03:03.789Z)
Latitude
-0.00002°
Longitude
11.96081°
Altitude
540.715 km
Speed
7.593 km/s
True Right ascension
14h 20m 07s
True Declination
0° 00' 00"
Sunlit
Object was in daylight at epoch
Visualization orbit readout
Latitude
Unknown
Longitude
Unknown
Altitude
Unknown
Speed
Unknown
Apparent Right ascension
Unknown
Apparent Declination
Unknown
Sunlit
N/A
Visualization observer readout
Local Sidereal Time
21:21:03
Azimuth
Unknown
Elevation
Unknown
Doppler factor
Unknown
Orbital elements
Apogee altitude
540.844 km
Perigee altitude
539.149 km
Semi-major axis
6,918.133 km
Eccentricity
0.00012
Inclination
53.216°
RAAN
215.0306°
Arg. of periapsis
94.626°
True anomaly
265.47321°
Mean anomaly
265.4872°
Eccentric anomaly
265.4802°
Mean motion
3.7719 °/min
Orbital period
95.44 mins
BSTAR
0.000015035
Loading maneuver chart data...
Computing Atmospheric mass density...
Loading historical data...
Loading historical data...
Loading historical data...
Loading historical data...
Loading historical data...
Loading historical data...
Loading historical data...

Documentation

Showing up to 5 results
|